Weather History for KONZ - October, 2012

Change the Weather History Date:

Wednesday, October 24, 2012

  Actual Average (KDTW) Record (KDTW)
Temperature  
Mean Temperature 64 °F 50 °F  
Max Temperature 71 °F 59 °F 81 °F (1963)
Min Temperature 57 °F 41 °F 22 °F (1969)
Degree Days  
Heating Degree Days 1 15  
Month to date heating degree days 280  
Since 1 July heating degree days 394  
Cooling Degree Days 0 0  
Month to date cooling degree days 7  
Year to date cooling degree days 802  
Growing Degree Days 14 (Base 50)    
Moisture  
Dew Point 57 °F    
Average Humidity 79    
Maximum Humidity 94    
Minimum Humidity 60    
Precipitation  
Precipitation 0.00 in 0.08 in 1.07 in (2000)
Month to date precipitation 1.96  
Year to date precipitation 27.66  
Snow  
Snow 0.00 in 0.10 in T in (1988)
Month to date snowfall 0.1  
Since 1 July snowfall 0.1  
Since 1 September snowfall 0.1  
Snow Depth -    
Sea Level Pressure  
Sea Level Pressure 30.00 in    
Wind  
Wind Speed 5 mph (South)    
Max Wind Speed 13 mph    
Max Gust Speed -    
Visibility 9 miles    
Events Rain    
T = Trace of Precipitation, MM = Missing Value Source: NWS Daily Summary

Daily Weather History Graph

Daily Weather History Graph

Search for Another Location

Airport or City:

Trip Planner

Search our weather history database for the weather conditions in past years. The results will help you decide how hot, cold, wet, or windy it might be!

Date:

Astronomy

Oct. 24, 2012 Rise Set
Actual Time 7:56 AM EDT 6:36 PM EDT
Civil Twilight 7:27 AM EDT 7:05 PM EDT
Nautical Twilight 6:54 AM EDT 7:37 PM EDT
Astronomical Twilight 6:22 AM EDT 8:10 PM EDT
Moon 3:56 PM EDT (10/24) 2:45 AM EDT (10/24)
Length of Visible Light 11h 37m
Length of Day
10h 40m
Waxing Gibbous, 76% of the Moon is Illuminated
Oct 24
Waxing Gibbous
Oct 29
Full
Nov 6
Last Quarter
Nov 13
New
Nov 20
First Quarter

Hourly Weather History & Observations

Time (EDT) Temp. Dew Point Humidity Pressure Visibility Wind Dir Wind Speed Gust Speed Precip Events Conditions
12:14 AM 62.6 °F 57.2 °F 82% 30.00 in 10.0 mi SSW 6.9 mph - N/A   Overcast
12:34 AM 62.6 °F 57.2 °F 82% 30.00 in 10.0 mi SSW 6.9 mph - N/A   Overcast
12:54 AM 62.6 °F 57.2 °F 82% 30.00 in 10.0 mi SSW 6.9 mph - N/A   Overcast
1:14 AM 62.6 °F 57.2 °F 82% 30.01 in 10.0 mi South 6.9 mph - N/A   Overcast
1:34 AM 60.8 °F 57.2 °F 88% 30.01 in 10.0 mi South 3.5 mph - N/A   Overcast
2:14 AM 60.8 °F 57.2 °F 88% 30.01 in 7.0 mi South 4.6 mph - N/A Rain Rain
2:34 AM 60.8 °F 57.2 °F 88% 30.01 in 7.0 mi South 3.5 mph - N/A   Overcast
2:55 AM 60.8 °F 57.2 °F 88% 30.01 in 7.0 mi Calm Calm - N/A Rain Light Rain
3:14 AM 60.8 °F 57.2 °F 88% 30.01 in 7.0 mi Calm Calm - N/A   Overcast
3:34 AM 60.8 °F 57.2 °F 88% 30.01 in 10.0 mi Calm Calm - N/A Rain Light Rain
3:55 AM 60.8 °F 57.2 °F 88% 30.00 in 5.0 mi South 4.6 mph - N/A   Overcast
4:14 AM 60.8 °F 57.2 °F 88% 30.00 in 7.0 mi South 3.5 mph - N/A   Overcast
4:34 AM 60.8 °F 55.4 °F 82% 30.00 in 5.0 mi South 3.5 mph - N/A   Overcast
4:54 AM 60.8 °F 57.2 °F 88% 30.00 in 5.0 mi Calm Calm - N/A   Overcast
5:14 AM 60.8 °F 57.2 °F 88% 30.00 in 7.0 mi South 5.8 mph - N/A   Overcast
5:34 AM 60.8 °F 57.2 °F 88% 30.01 in 10.0 mi SSW 5.8 mph - N/A   Overcast
5:54 AM 62.6 °F 57.2 °F 82% 30.01 in 10.0 mi South 4.6 mph - N/A   Overcast
6:14 AM 60.8 °F 57.2 °F 88% 30.01 in 7.0 mi South 4.6 mph - N/A   Overcast
6:34 AM 60.8 °F 57.2 °F 88% 30.01 in 7.0 mi South 5.8 mph - N/A   Overcast
6:54 AM 60.8 °F 55.4 °F 82% 30.02 in 10.0 mi SSE 5.8 mph - N/A   Overcast
7:14 AM 60.8 °F 55.4 °F 82% 30.02 in 10.0 mi SSE 4.6 mph - N/A   Mostly Cloudy
7:34 AM 60.8 °F 55.4 °F 82% 30.03 in 10.0 mi South 4.6 mph - N/A   Overcast
7:54 AM 59.0 °F 55.4 °F 88% 30.03 in 10.0 mi South 4.6 mph - N/A   Overcast
8:14 AM 57.2 °F 55.4 °F 94% 30.03 in 7.0 mi SSE 4.6 mph - N/A   Mostly Cloudy
8:34 AM 59.0 °F 55.4 °F 88% 30.03 in 7.0 mi SSE 4.6 mph - N/A   Overcast
8:54 AM 59.0 °F 55.4 °F 88% 30.02 in 10.0 mi SSE 5.8 mph - N/A   Scattered Clouds
9:14 AM 60.8 °F 55.4 °F 82% 30.02 in 10.0 mi SSE 6.9 mph - N/A   Clear
9:34 AM 60.8 °F 55.4 °F 82% 30.02 in 10.0 mi SSE 6.9 mph - N/A   Clear
9:54 AM 60.8 °F 55.4 °F 82% 30.03 in 10.0 mi South 6.9 mph - N/A   Clear
10:15 AM 62.6 °F 57.2 °F 82% 30.03 in 10.0 mi South 5.8 mph - N/A   Clear
10:34 AM 62.6 °F 57.2 °F 82% 30.02 in 10.0 mi South 5.8 mph - N/A   Clear
10:54 AM 62.6 °F 55.4 °F 77% 30.02 in 10.0 mi SSE 5.8 mph - N/A   Clear
11:14 AM 64.4 °F 57.2 °F 77% 30.02 in 10.0 mi SSE 5.8 mph - N/A   Clear
11:34 AM 64.4 °F 57.2 °F 77% 30.02 in 10.0 mi SSE 3.5 mph - N/A   Clear
11:54 AM 64.4 °F 57.2 °F 77% 30.02 in 10.0 mi SSE 3.5 mph - N/A   Clear
12:14 PM 64.4 °F 57.2 °F 77% 30.02 in 10.0 mi Calm Calm - N/A   Clear
12:34 PM 66.2 °F 57.2 °F 73% 30.02 in 10.0 mi SSE 4.6 mph - N/A   Clear
12:54 PM 66.2 °F 57.2 °F 73% 30.01 in 10.0 mi SSE 5.8 mph - N/A   Clear
1:14 PM 68.0 °F 57.2 °F 68% 30.00 in 10.0 mi SSE 8.1 mph - N/A   Clear
1:34 PM 69.8 °F 57.2 °F 64% 29.99 in 10.0 mi South 11.5 mph - N/A   Clear
1:54 PM 68.0 °F 57.2 °F 68% 29.99 in 10.0 mi South 11.5 mph - N/A   Clear
2:14 PM 69.8 °F 57.2 °F 64% 29.98 in 10.0 mi South 12.7 mph - N/A   Clear
2:34 PM 69.8 °F 57.2 °F 64% 29.98 in 10.0 mi South 11.5 mph - N/A   Clear
2:54 PM 69.8 °F 57.2 °F 64% 29.98 in 10.0 mi South 10.4 mph - N/A   Clear
3:14 PM 71.6 °F 59.0 °F 64% 29.97 in 10.0 mi South 9.2 mph - N/A   Clear
3:34 PM 71.6 °F 57.2 °F 60% 29.97 in 10.0 mi South 9.2 mph - N/A   Clear
3:54 PM 71.6 °F 57.2 °F 60% 29.97 in 10.0 mi SSE 8.1 mph - N/A   Clear
4:14 PM 68.0 °F 57.2 °F 68% 29.97 in 10.0 mi SSE 5.8 mph - N/A   Clear
4:34 PM 68.0 °F 57.2 °F 68% 29.97 in 10.0 mi SSE 4.6 mph - N/A   Clear
5:14 PM 68.0 °F 57.2 °F 68% 29.97 in 10.0 mi SSE 3.5 mph - N/A   Clear
5:34 PM 68.0 °F 57.2 °F 68% 29.97 in 10.0 mi SSE 3.5 mph - N/A   Clear
5:54 PM 68.0 °F 57.2 °F 68% 29.97 in 10.0 mi SSE 3.5 mph - N/A   Clear
6:14 PM 66.2 °F 57.2 °F 73% 29.97 in 10.0 mi SSE 4.6 mph - N/A   Clear
6:34 PM 64.4 °F 57.2 °F 77% 29.97 in 10.0 mi South 4.6 mph - N/A   Clear
6:54 PM 62.6 °F 57.2 °F 82% 29.97 in 10.0 mi South 3.5 mph - N/A   Clear
7:14 PM 62.6 °F 57.2 °F 82% 29.97 in 10.0 mi South 3.5 mph - N/A   Clear
7:34 PM 60.8 °F 55.4 °F 82% 29.98 in 10.0 mi South 3.5 mph - N/A   Clear
7:55 PM 60.8 °F 55.4 °F 82% 29.98 in 10.0 mi South 3.5 mph - N/A   Clear
8:14 PM 60.8 °F 55.4 °F 82% 29.98 in 10.0 mi Calm Calm - N/A   Clear
8:54 PM 60.8 °F 57.2 °F 88% 29.99 in 10.0 mi SSE 3.5 mph - N/A   Clear
9:14 PM 62.6 °F 57.2 °F 82% 29.99 in 10.0 mi South 3.5 mph - N/A   Clear
9:34 PM 62.6 °F 57.2 °F 82% 29.99 in 10.0 mi SSE 4.6 mph - N/A   Scattered Clouds
9:54 PM 62.6 °F 57.2 °F 82% 29.99 in 10.0 mi South 4.6 mph - N/A   Clear
10:14 PM 62.6 °F 57.2 °F 82% 29.99 in 10.0 mi SSE 5.8 mph - N/A   Clear
10:34 PM 60.8 °F 55.4 °F 82% 30.00 in 10.0 mi South 4.6 mph - N/A   Clear
10:54 PM 60.8 °F 55.4 °F 82% 30.00 in 10.0 mi South 4.6 mph - N/A   Clear
11:14 PM 60.8 °F 55.4 °F 82% 29.99 in 10.0 mi South 4.6 mph - N/A   Clear
11:34 PM 62.6 °F 55.4 °F 77% 29.99 in 10.0 mi SSE 6.9 mph - N/A   Clear
11:54 PM 62.6 °F 55.4 °F 77% 29.99 in 10.0 mi SSE 8.1 mph - N/A   Clear